Tracking 29892 objects as of 21-Nov-2024
HD Live streaming from Space Station
objects crossing your sky now

STARLINK-2478

Track STARLINK-2478 now!
10-day predictions
STARLINK-2478 is classified as:


NORAD ID: 48135
Int'l Code: 2021-027AV
Perigee: 553.3 km
Apogee: 555.3 km
Inclination: 53.1 °
Period: 95.6 minutes
Semi major axis: 6925 km
RCS: Unknown
Launch date: April 7, 2021
Source: United States (US)
Launch site: AIR FORCE EASTERN TEST RANGE (AFETR)
Your satellite tracking list
Your tracking list is empty




NASA's NSSDC Master Catalog

Two Line Element Set (TLE):
1 48135U 21027AV  24325.92261866  .00001936  00000-0  14878-3 0  9999
2 48135  53.0535 143.6028 0001452  96.7262 263.3892 15.06412844200530
Source of the keplerian elements: AFSPC